owner,sensor,date,latitude,longitude,vertical_datum,wind_speed,wind_to_direction,wind_speed_of_gust,qcFlag 
TABS,ioos:station:wmo:42045:1,2010-05-01T00:00:00Z,26.2168,-96.4998,4.0,4.508713786,154.515071,5.01,'11111222,11111222,11111222' 
TABS,ioos:station:wmo:42045:1,2010-05-01T00:30:00Z,26.2168,-96.4998,4.0,4.364951317,153.9048473,6.59,'11111222,11111222,11111222' 
TABS,ioos:station:wmo:42045:1,2010-05-01T01:00:00Z,26.2168,-96.4998,4.0,5.683176928,151.4059097,7.16,'11111222,11111222,11111222' 
TABS,ioos:station:wmo:42045:1,2010-05-01T01:30:00Z,26.2168,-96.4998,4.0,5.04457134,153.3844274,6.28,'11111222,11111222,11111222' 
TABS,ioos:station:wmo:42045:1,2010-05-01T02:00:00Z,26.2168,-96.4998,4.0,5.132562713,150.338476,6.04,'11111222,11111222,11111222' 
TABS,ioos:station:wmo:42045:1,2010-05-01T02:30:00Z,26.2168,-96.4998,4.0,5.595221175,154.2595623,6.59,'11111222,11111222,11111222' 
TABS,ioos:station:wmo:42045:1,2010-05-01T03:00:00Z,26.2168,-96.4998,4.0,6.933108971,154.5440309,8.2,'11111222,11111222,11111222' 
TABS,ioos:station:wmo:42045:1,2010-05-01T03:30:00Z,26.2168,-96.4998,4.0,6.992124141,154.8645666,8.2,'11111222,11111222,11111222' 
TABS,ioos:station:wmo:42045:1,2010-05-01T04:00:00Z,26.2168,-96.4998,4.0,7.281565766,152.5202582,9.03,'11111222,11111222,11111222' 
TABS,ioos:station:wmo:42045:1,2010-05-01T04:30:00Z,26.2168,-96.4998,4.0,7.237105775,151.1686733,9.09,'11111222,11111222,11111222' 
TABS,ioos:station:wmo:42045:1,2010-05-01T05:00:00Z,26.2168,-96.4998,4.0,6.133653071,158.5804703,7.47,'11111222,11111222,11111222' 
TABS,ioos:station:wmo:42045:1,2010-05-01T05:30:00Z,26.2168,-96.4998,4.0,6.068624226,159.6541675,7.4,'11111222,11111222,11111222' 
TABS,ioos:station:wmo:42045:1,2010-05-01T06:00:00Z,26.2168,-96.4998,4.0,6.275866474,167.2040675,7.36,'11111222,11111222,11111222' 
TABS,ioos:station:wmo:42045:1,2010-05-01T06:30:00Z,26.2168,-96.4998,4.0,6.928780556,164.6000755,8.11,'11111222,11111222,11111222' 
TABS,ioos:station:wmo:42045:1,2010-05-01T07:00:00Z,26.2168,-96.4998,4.0,5.67014991,170.3551763,6.73,'11111222,11111222,11111222' 
TABS,ioos:station:wmo:42045:1,2010-05-01T07:30:00Z,26.2168,-96.4998,4.0,5.74624225,171.2919726,6.69,'11111222,11111222,11111222' 
TABS,ioos:station:wmo:42045:1,2010-05-01T08:00:00Z,26.2168,-96.4998,4.0,5.387132818,174.2472992,6.39,'11111222,11111222,11111222' 
TABS,ioos:station:wmo:42045:1,2010-05-01T08:30:00Z,26.2168,-96.4998,4.0,6.537927806,171.7337977,7.41,'11111222,11111222,11111222' 
TABS,ioos:station:wmo:42045:1,2010-05-01T09:00:00Z,26.2168,-96.4998,4.0,5.708800224,163.7239856,6.76,'11111222,11111222,11111222' 
TABS,ioos:station:wmo:42045:1,2010-05-01T09:30:00Z,26.2168,-96.4998,4.0,5.089931237,156.0034893,6.65,'11111222,11111222,11111222' 
TABS,ioos:station:wmo:42045:1,2010-05-01T10:00:00Z,26.2168,-96.4998,4.0,5.238110346,142.7584967,6.4,'11111222,11111222,11111222' 
TABS,ioos:station:wmo:42045:1,2010-05-01T10:30:00Z,26.2168,-96.4998,4.0,5.458067424,137.7478043,6.87,'11111222,11111222,11111222' 
TABS,ioos:station:wmo:42045:1,2010-05-01T11:00:00Z,26.2168,-96.4998,4.0,6.000016667,132.9741921,6.9,'11111222,11111222,11111222' 
TABS,ioos:station:wmo:42045:1,2010-05-01T11:30:00Z,26.2168,-96.4998,4.0,6.368987361,129.1378256,7.65,'11111222,11111222,11111222' 
TABS,ioos:station:wmo:42045:1,2010-05-01T12:00:00Z,26.2168,-96.4998,4.0,7.830619388,137.8988857,8.74,'11111222,11111222,11111222' 
TABS,ioos:station:wmo:42045:1,2010-05-01T12:30:00Z,26.2168,-96.4998,4.0,7.892274704,139.9344685,9.07,'11111222,11111222,11111222' 
TABS,ioos:station:wmo:42045:1,2010-05-01T13:00:00Z,26.2168,-96.4998,4.0,8.131967782,141.3404926,9.34,'11111222,11111222,11111222' 
TABS,ioos:station:wmo:42045:1,2010-05-01T13:30:00Z,26.2168,-96.4998,4.0,7.912850308,142.2904321,8.99,'11111222,11111222,11111222' 
TABS,ioos:station:wmo:42045:1,2010-05-01T14:00:00Z,26.2168,-96.4998,4.0,7.380311647,146.1595007,8.56,'11111222,11111222,11111222' 
TABS,ioos:station:wmo:42045:1,2010-05-01T14:30:00Z,26.2168,-96.4998,4.0,6.28809192,153.9649669,7.35,'11111222,11111222,11111222' 
TABS,ioos:station:wmo:42045:1,2010-05-01T15:00:00Z,26.2168,-96.4998,4.0,5.608074536,160.3051976,6.49,'11111222,11111222,11111222' 
TABS,ioos:station:wmo:42045:1,2010-05-01T15:30:00Z,26.2168,-96.4998,4.0,6.986451174,158.9450848,7.83,'11111222,11111222,11111222' 
TABS,ioos:station:wmo:42045:1,2010-05-01T16:00:00Z,26.2168,-96.4998,4.0,6.099778685,166.055126,7.3,'11111222,11111222,11111222' 
TABS,ioos:station:wmo:42045:1,2010-05-01T16:30:00Z,26.2168,-96.4998,4.0,4.979447761,171.9189448,6.23,'11111222,11111222,11111222' 
TABS,ioos:station:wmo:42045:1,2010-05-01T17:00:00Z,26.2168,-96.4998,4.0,4.006494727,186.5930677,4.64,'11111222,11111222,11111222' 
TABS,ioos:station:wmo:42045:1,2010-05-01T17:30:00Z,26.2168,-96.4998,4.0,4.441463723,164.9940406,6.0,'11111222,11111222,11111222' 
TABS,ioos:station:wmo:42045:1,2010-05-01T18:00:00Z,26.2168,-96.4998,4.0,4.482956614,167.1109996,5.53,'11111222,11111222,11111222' 
TABS,ioos:station:wmo:42045:1,2010-05-01T18:30:00Z,26.2168,-96.4998,4.0,3.924499968,168.0890229,4.58,'11111222,11111222,11111222' 
TABS,ioos:station:wmo:42045:1,2010-05-01T19:00:00Z,26.2168,-96.4998,4.0,4.461625264,164.5311286,5.21,'11111222,11111222,11111222' 
TABS,ioos:station:wmo:42045:1,2010-05-01T19:30:00Z,26.2168,-96.4998,4.0,4.110596064,168.635633,4.54,'11111222,11111222,11111222' 
TABS,ioos:station:wmo:42045:1,2010-05-01T20:00:00Z,26.2168,-96.4998,4.0,4.5597478,166.2992365,5.31,'11111222,11111222,11111222' 
TABS,ioos:station:wmo:42045:1,2010-05-01T20:30:00Z,26.2168,-96.4998,4.0,4.212362757,157.0874356,5.27,'11111222,11111222,11111222' 
TABS,ioos:station:wmo:42045:1,2010-05-01T21:00:00Z,26.2168,-96.4998,4.0,3.944616585,157.335706,4.47,'11111222,11111222,11111222' 
TABS,ioos:station:wmo:42045:1,2010-05-01T21:30:00Z,26.2168,-96.4998,4.0,3.75353167,159.2476902,4.24,'11111222,11111222,11111222' 
TABS,ioos:station:wmo:42045:1,2010-05-01T22:00:00Z,26.2168,-96.4998,4.0,3.651698235,148.0946912,4.25,'11111222,11111222,11111222' 
TABS,ioos:station:wmo:42045:1,2010-05-01T22:30:00Z,26.2168,-96.4998,4.0,3.363822231,150.234272,3.99,'11111222,11111222,11111222' 
TABS,ioos:station:wmo:42045:1,2010-05-01T23:00:00Z,26.2168,-96.4998,4.0,3.358943286,135.6034055,4.0,'11111222,11111222,11111222' 
TABS,ioos:station:wmo:42045:1,2010-05-01T23:30:00Z,26.2168,-96.4998,4.0,3.390058997,127.2082558,3.95,'11111222,11111222,11111222' 
TABS,ioos:station:wmo:42045:1,2010-05-02T00:00:00Z,26.2168,-96.4998,4.0,3.743180466,130.8838629,4.52,'11111222,11111222,11111222' 
TABS,ioos:station:wmo:42045:1,2010-05-02T00:30:00Z,26.2168,-96.4998,4.0,4.227871805,131.8364395,5.16,'11111222,11111222,11111222' 
TABS,ioos:station:wmo:42045:1,2010-05-02T01:00:00Z,26.2168,-96.4998,4.0,4.654137944,133.607383,5.28,'11111222,11111222,11111222' 
TABS,ioos:station:wmo:42045:1,2010-05-02T01:30:00Z,26.2168,-96.4998,4.0,4.951171579,138.3571583,6.18,'11111222,11111222,11111222' 
TABS,ioos:station:wmo:42045:1,2010-05-02T02:00:00Z,26.2168,-96.4998,4.0,3.353356527,140.5666348,3.96,'11111222,11111222,11111222' 
TABS,ioos:station:wmo:42045:1,2010-05-02T02:30:00Z,26.2168,-96.4998,4.0,3.141114452,136.8063368,3.92,'11111222,11111222,11111222' 
TABS,ioos:station:wmo:42045:1,2010-05-02T03:00:00Z,26.2168,-96.4998,4.0,4.470011186,143.0022211,5.42,'11111222,11111222,11111222' 
TABS,ioos:station:wmo:42045:1,2010-05-02T03:30:00Z,26.2168,-96.4998,4.0,4.271697555,174.2228992,5.39,'11111222,11111222,11111222' 
TABS,ioos:station:wmo:42045:1,2010-05-02T04:00:00Z,26.2168,-96.4998,4.0,3.627464679,171.7584398,4.74,'11111222,11111222,11111222' 
TABS,ioos:station:wmo:42045:1,2010-05-02T04:30:00Z,26.2168,-96.4998,4.0,2.541515296,187.4607591,3.16,'11111222,11111222,11111222' 
TABS,ioos:station:wmo:42045:1,2010-05-02T05:00:00Z,26.2168,-96.4998,4.0,1.945893111,205.2482902,2.86,'11111222,11111222,11111222' 
TABS,ioos:station:wmo:42045:1,2010-05-02T05:30:00Z,26.2168,-96.4998,4.0,1.866038585,216.5015662,2.36,'11111222,11111222,11111222' 
TABS,ioos:station:wmo:42045:1,2010-05-02T06:00:00Z,26.2168,-96.4998,4.0,2.204948979,236.0938023,3.19,'11111222,11111222,11111222' 
TABS,ioos:station:wmo:42045:1,2010-05-02T06:30:00Z,26.2168,-96.4998,4.0,2.700833205,257.8163719,3.32,'11111222,11111222,11111222' 
TABS,ioos:station:wmo:42045:1,2010-05-02T07:00:00Z,26.2168,-96.4998,4.0,2.774815309,256.6649248,3.31,'11111222,11111222,11111222' 
TABS,ioos:station:wmo:42045:1,2010-05-02T07:30:00Z,26.2168,-96.4998,4.0,2.794279871,283.240489,3.32,'11111222,11111222,11111222' 
TABS,ioos:station:wmo:42045:1,2010-05-02T08:00:00Z,26.2168,-96.4998,4.0,3.282925525,316.9748242,4.09,'11111222,11111222,11111222' 
TABS,ioos:station:wmo:42045:1,2010-05-02T08:30:00Z,26.2168,-96.4998,4.0,4.881936091,338.1112563,5.94,'11111222,11111222,11111222' 
TABS,ioos:station:wmo:42045:1,2010-05-02T09:00:00Z,26.2168,-96.4998,4.0,4.003910588,352.5375517,4.73,'11111222,11111222,11111222' 
TABS,ioos:station:wmo:42045:1,2010-05-02T09:30:00Z,26.2168,-96.4998,4.0,3.930203557,0.582931192,4.5,'11111222,11111222,11111222' 
TABS,ioos:station:wmo:42045:1,2010-05-02T10:00:00Z,26.2168,-96.4998,4.0,5.869522979,353.346996,6.76,'11111222,11111222,11111222' 
TABS,ioos:station:wmo:42045:1,2010-05-02T10:30:00Z,26.2168,-96.4998,4.0,5.120156248,352.8192708,6.21,'11111222,11111222,11111222' 
TABS,ioos:station:wmo:42045:1,2010-05-02T11:00:00Z,26.2168,-96.4998,4.0,6.178316923,347.8532447,7.18,'11111222,11111222,11111222' 
TABS,ioos:station:wmo:42045:1,2010-05-02T11:30:00Z,26.2168,-96.4998,4.0,6.536704062,342.0915343,8.02,'11111222,11111222,11111222' 
TABS,ioos:station:wmo:42045:1,2010-05-02T12:00:00Z,26.2168,-96.4998,4.0,7.309343336,348.3977966,8.13,'11111222,11111222,11111222' 
TABS,ioos:station:wmo:42045:1,2010-05-02T12:30:00Z,26.2168,-96.4998,4.0,7.530059761,359.7715212,8.96,'11111222,11144222,11111222' 
TABS,ioos:station:wmo:42045:1,2010-05-02T13:00:00Z,26.2168,-96.4998,4.0,8.192002197,355.7995712,10.21,'11111222,11111222,11111222' 
TABS,ioos:station:wmo:42045:1,2010-05-02T13:30:00Z,26.2168,-96.4998,4.0,7.550801282,0.834501477,8.98,'11111222,11111222,11111222' 
TABS,ioos:station:wmo:42045:1,2010-05-02T14:00:00Z,26.2168,-96.4998,4.0,8.405004462,347.6336774,10.24,'11111222,11111222,11111222' 
TABS,ioos:station:wmo:42045:1,2010-05-02T14:30:00Z,26.2168,-96.4998,4.0,9.677200008,343.7372546,10.82,'11111222,11111222,11111222' 
TABS,ioos:station:wmo:42045:1,2010-05-02T15:00:00Z,26.2168,-96.4998,4.0,9.973209112,339.1479367,11.67,'11111222,11111222,11111222' 
TABS,ioos:station:wmo:42045:1,2010-05-02T15:30:00Z,26.2168,-96.4998,4.0,9.509852785,345.8174541,11.66,'11111222,11111222,11111222' 
TABS,ioos:station:wmo:42045:1,2010-05-02T16:00:00Z,26.2168,-96.4998,4.0,9.979859718,352.7466119,11.87,'11111222,11111222,11111222' 
TABS,ioos:station:wmo:42045:1,2010-05-02T16:30:00Z,26.2168,-96.4998,4.0,9.446988938,349.8794062,11.38,'11111222,11111222,11111222' 
TABS,ioos:station:wmo:42045:1,2010-05-02T17:00:00Z,26.2168,-96.4998,4.0,8.962332286,356.9937292,10.44,'11111222,11111222,11111222' 
TABS,ioos:station:wmo:42045:1,2010-05-02T17:30:00Z,26.2168,-96.4998,4.0,8.748857068,4.654648234,10.09,'11111222,11111222,11111222' 
TABS,ioos:station:wmo:42045:1,2010-05-02T18:00:00Z,26.2168,-96.4998,4.0,7.710577151,5.880429459,9.54,'11111222,11111222,11111222' 
TABS,ioos:station:wmo:42045:1,2010-05-02T18:30:00Z,26.2168,-96.4998,4.0,7.025909194,8.429726584,8.47,'11111222,11111222,11111222' 
TABS,ioos:station:wmo:42045:1,2010-05-02T19:00:00Z,26.2168,-96.4998,4.0,6.477237065,19.38580512,8.02,'11111222,11111222,11111222' 
TABS,ioos:station:wmo:42045:1,2010-05-02T19:30:00Z,26.2168,-96.4998,4.0,5.876640197,14.08329332,6.8,'11111222,11111222,11111222' 
TABS,ioos:station:wmo:42045:1,2010-05-02T20:00:00Z,26.2168,-96.4998,4.0,5.576782226,10.12082539,6.74,'11111222,11111222,11111222' 
TABS,ioos:station:wmo:42045:1,2010-05-02T20:30:00Z,26.2168,-96.4998,4.0,5.539539692,14.21159925,6.53,'11111222,11111222,11111222' 
TABS,ioos:station:wmo:42045:1,2010-05-02T21:00:00Z,26.2168,-96.4998,4.0,4.96179403,28.26919568,5.68,'11111222,11111222,11111222' 
TABS,ioos:station:wmo:42045:1,2010-05-02T21:30:00Z,26.2168,-96.4998,4.0,4.437082375,38.13516906,5.22,'11111222,11111222,11111222' 
TABS,ioos:station:wmo:42045:1,2010-05-02T22:00:00Z,26.2168,-96.4998,4.0,4.45094372,31.86864747,5.18,'11111222,11111222,11111222' 
TABS,ioos:station:wmo:42045:1,2010-05-02T22:30:00Z,26.2168,-96.4998,4.0,4.545822258,33.96943754,5.22,'11111222,11111222,11111222' 
TABS,ioos:station:wmo:42045:1,2010-05-02T23:00:00Z,26.2168,-96.4998,4.0,4.437668307,47.46543754,5.45,'11111222,11111222,11111222' 
TABS,ioos:station:wmo:42045:1,2010-05-02T23:30:00Z,26.2168,-96.4998,4.0,4.279310692,46.41994654,4.89,'11111222,11111222,11111222' 
TABS,ioos:station:wmo:42045:1,2010-05-03T00:00:00Z,26.2168,-96.4998,4.0,4.18306108,55.32183225,4.84,'11111222,11111222,11111222' 
TABS,ioos:station:wmo:42045:1,2010-05-03T00:30:00Z,26.2168,-96.4998,4.0,4.140929847,55.92583422,4.89,'11111222,11111222,11111222' 
TABS,ioos:station:wmo:42045:1,2010-05-03T01:00:00Z,26.2168,-96.4998,4.0,4.077474709,61.10882231,4.83,'11111222,11111222,11111222' 
TABS,ioos:station:wmo:42045:1,2010-05-03T01:30:00Z,26.2168,-96.4998,4.0,4.031128874,66.61441271,5.11,'11111222,11111222,11111222' 
TABS,ioos:station:wmo:42045:1,2010-05-03T02:00:00Z,26.2168,-96.4998,4.0,3.890758281,72.96185113,4.58,'11111222,11111222,11111222' 
TABS,ioos:station:wmo:42045:1,2010-05-03T02:30:00Z,26.2168,-96.4998,4.0,4.048530598,74.96791815,4.99,'11111222,11111222,11111222' 
TABS,ioos:station:wmo:42045:1,2010-05-03T03:00:00Z,26.2168,-96.4998,4.0,3.638296305,76.65088318,4.34,'11111222,11111222,11111222' 
TABS,ioos:station:wmo:42045:1,2010-05-03T03:30:00Z,26.2168,-96.4998,4.0,3.778954882,86.05440208,4.34,'11111222,11111222,11111222' 
TABS,ioos:station:wmo:42045:1,2010-05-03T04:00:00Z,26.2168,-96.4998,4.0,3.23447059,86.98679862,4.0,'11111222,11111222,11111222' 
TABS,ioos:station:wmo:42045:1,2010-05-03T04:30:00Z,26.2168,-96.4998,4.0,3.749573309,97.20123352,4.41,'11111222,11111222,11111222' 
TABS,ioos:station:wmo:42045:1,2010-05-03T05:00:00Z,26.2168,-96.4998,4.0,3.199031103,97.72523678,4.18,'11111222,11111222,11111222' 
TABS,ioos:station:wmo:42045:1,2010-05-03T05:30:00Z,26.2168,-96.4998,4.0,3.718736345,105.120373,4.47,'11111222,11111222,11111222' 
TABS,ioos:station:wmo:42045:1,2010-05-03T06:00:00Z,26.2168,-96.4998,4.0,3.570224083,103.6084791,4.34,'11111222,11111222,11111222' 
TABS,ioos:station:wmo:42045:1,2010-05-03T06:30:00Z,26.2168,-96.4998,4.0,3.086907838,101.0191191,3.75,'11111222,11111222,11111222' 
TABS,ioos:station:wmo:42045:1,2010-05-03T07:00:00Z,26.2168,-96.4998,4.0,3.013851357,107.7740212,3.51,'11111222,11111222,11111222' 
TABS,ioos:station:wmo:42045:1,2010-05-03T07:30:00Z,26.2168,-96.4998,4.0,2.90070681,100.7292551,3.49,'11111222,11111222,11111222' 
TABS,ioos:station:wmo:42045:1,2010-05-03T08:00:00Z,26.2168,-96.4998,4.0,2.576140524,103.0116776,2.94,'11111222,11111222,11111222' 
TABS,ioos:station:wmo:42045:1,2010-05-03T08:30:00Z,26.2168,-96.4998,4.0,2.41946275,116.2476925,2.92,'11111222,11111222,11111222' 
TABS,ioos:station:wmo:42045:1,2010-05-03T09:00:00Z,26.2168,-96.4998,4.0,2.191551962,112.8213401,2.59,'11111222,11111222,11111222' 
TABS,ioos:station:wmo:42045:1,2010-05-03T09:30:00Z,26.2168,-96.4998,4.0,1.988290723,119.5307771,2.35,'11111222,11111222,11111222' 
TABS,ioos:station:wmo:42045:1,2010-05-03T10:00:00Z,26.2168,-96.4998,4.0,2.310367936,100.7266903,3.12,'11111222,11111222,11111222' 
TABS,ioos:station:wmo:42045:1,2010-05-03T10:30:00Z,26.2168,-96.4998,4.0,2.281140066,121.7394875,2.63,'11111222,11111222,11111222' 
TABS,ioos:station:wmo:42045:1,2010-05-03T11:00:00Z,26.2168,-96.4998,4.0,2.413379373,99.54078041,2.74,'11111222,11111222,11111222' 
TABS,ioos:station:wmo:42045:1,2010-05-03T11:30:00Z,26.2168,-96.4998,4.0,3.190062695,90.35963656,3.9,'11111222,11111222,11111222' 
TABS,ioos:station:wmo:42045:1,2010-05-03T12:00:00Z,26.2168,-96.4998,4.0,3.606937759,82.99279583,4.25,'11111222,11111222,11111222' 
TABS,ioos:station:wmo:42045:1,2010-05-03T12:30:00Z,26.2168,-96.4998,4.0,3.685172995,79.20803357,4.28,'11111222,11111222,11111222' 
TABS,ioos:station:wmo:42045:1,2010-05-03T13:00:00Z,26.2168,-96.4998,4.0,3.881816585,79.76076549,4.95,'11111222,11111222,11111222' 
TABS,ioos:station:wmo:42045:1,2010-05-03T13:30:00Z,26.2168,-96.4998,4.0,4.275184207,85.16917042,5.06,'11111222,11111222,11111222' 
TABS,ioos:station:wmo:42045:1,2010-05-03T14:00:00Z,26.2168,-96.4998,4.0,4.637779641,80.19200634,5.47,'11111222,11111222,11111222' 
TABS,ioos:station:wmo:42045:1,2010-05-03T14:30:00Z,26.2168,-96.4998,4.0,4.26635676,104.5252125,5.38,'11111222,11111222,11111222' 
TABS,ioos:station:wmo:42045:1,2010-05-03T15:00:00Z,26.2168,-96.4998,4.0,4.083968658,92.52653192,4.71,'11111222,11111222,11111222' 
TABS,ioos:station:wmo:42045:1,2010-05-03T15:30:00Z,26.2168,-96.4998,4.0,3.128466078,127.8592533,3.66,'11111222,11111222,11111222' 
TABS,ioos:station:wmo:42045:1,2010-05-03T16:00:00Z,26.2168,-96.4998,4.0,2.470951234,150.9456743,3.04,'11111222,11111222,11111222' 
TABS,ioos:station:wmo:42045:1,2010-05-03T16:30:00Z,26.2168,-96.4998,4.0,2.45904453,131.2081685,2.99,'11111222,11111222,11111222' 
TABS,ioos:station:wmo:42045:1,2010-05-03T17:00:00Z,26.2168,-96.4998,4.0,1.744133022,153.4352214,2.18,'11111222,11111222,11111222' 
TABS,ioos:station:wmo:42045:1,2010-05-03T17:30:00Z,26.2168,-96.4998,4.0,0.680073525,180.8427327,1.1,'11111222,11111222,11111222' 
TABS,ioos:station:wmo:42045:1,2010-05-03T18:00:00Z,26.2168,-96.4998,4.0,0.673572565,251.834086,1.11,'11111222,11111222,11111222' 
TABS,ioos:station:wmo:42045:1,2010-05-03T18:30:00Z,26.2168,-96.4998,4.0,0.892020179,3.856581508,1.56,'11111222,11111222,11111222' 
TABS,ioos:station:wmo:42045:1,2010-05-03T19:00:00Z,26.2168,-96.4998,4.0,2.726829661,347.2886867,3.41,'11111222,11111222,11111222' 
TABS,ioos:station:wmo:42045:1,2010-05-03T19:30:00Z,26.2168,-96.4998,4.0,3.699432389,344.7990409,4.56,'11111222,11111222,11111222' 
TABS,ioos:station:wmo:42045:1,2010-05-03T20:00:00Z,26.2168,-96.4998,4.0,4.544007042,350.3716559,5.28,'11111222,11111222,11111222' 
TABS,ioos:station:wmo:42045:1,2010-05-03T20:30:00Z,26.2168,-96.4998,4.0,4.9463623,354.081743,5.57,'11111222,11111222,11111222' 
TABS,ioos:station:wmo:42045:1,2010-05-03T21:00:00Z,26.2168,-96.4998,4.0,5.272817084,5.331935954,6.1,'11111222,11111222,11111222' 
TABS,ioos:station:wmo:42045:1,2010-05-03T21:30:00Z,26.2168,-96.4998,4.0,5.921325865,8.253030279,7.03,'11111222,11111222,11111222' 
TABS,ioos:station:wmo:42045:1,2010-05-03T22:00:00Z,26.2168,-96.4998,4.0,5.838433009,11.5598933,6.86,'11111222,11111222,11111222' 
TABS,ioos:station:wmo:42045:1,2010-05-03T22:30:00Z,26.2168,-96.4998,4.0,5.69239844,13.71864366,6.91,'11111222,11111222,11111222' 
TABS,ioos:station:wmo:42045:1,2010-05-03T23:00:00Z,26.2168,-96.4998,4.0,5.771455622,8.368544861,7.2,'11111222,11111222,11111222' 
TABS,ioos:station:wmo:42045:1,2010-05-03T23:30:00Z,26.2168,-96.4998,4.0,5.236831103,21.27290529,6.02,'11111222,11111222,11111222' 
TABS,ioos:station:wmo:42045:1,2010-05-04T00:00:00Z,26.2168,-96.4998,4.0,4.945947836,18.87429516,5.98,'11111222,11111222,11111222' 
TABS,ioos:station:wmo:42045:1,2010-05-04T00:30:00Z,26.2168,-96.4998,4.0,4.760010504,23.65668119,5.56,'11111222,11111222,11111222' 
TABS,ioos:station:wmo:42045:1,2010-05-04T01:00:00Z,26.2168,-96.4998,4.0,4.443568386,30.72022847,5.29,'11111222,11111222,11111222' 
TABS,ioos:station:wmo:42045:1,2010-05-04T01:30:00Z,26.2168,-96.4998,4.0,3.731179438,39.23508263,4.21,'11111222,11111222,11111222' 
TABS,ioos:station:wmo:42045:1,2010-05-04T02:00:00Z,26.2168,-96.4998,4.0,3.721518507,40.96837103,4.58,'11111222,11111222,11111222' 
TABS,ioos:station:wmo:42045:1,2010-05-04T02:30:00Z,26.2168,-96.4998,4.0,3.479727001,48.84472922,4.0,'11111222,11111222,11111222' 
TABS,ioos:station:wmo:42045:1,2010-05-04T03:00:00Z,26.2168,-96.4998,4.0,3.253582641,57.04223129,3.87,'11111222,11111222,11111222' 
TABS,ioos:station:wmo:42045:1,2010-05-04T03:30:00Z,26.2168,-96.4998,4.0,3.402704806,71.13869129,4.14,'11111222,11111222,11111222' 
TABS,ioos:station:wmo:42045:1,2010-05-04T04:00:00Z,26.2168,-96.4998,4.0,3.241681662,70.72626035,3.79,'11111222,11111222,11111222' 
TABS,ioos:station:wmo:42045:1,2010-05-04T04:30:00Z,26.2168,-96.4998,4.0,2.781726083,63.06613436,3.48,'11111222,11111222,11111222' 
TABS,ioos:station:wmo:42045:1,2010-05-04T05:00:00Z,26.2168,-96.4998,4.0,2.427447219,69.25020296,2.92,'11111222,11111222,11111222' 
TABS,ioos:station:wmo:42045:1,2010-05-04T05:30:00Z,26.2168,-96.4998,4.0,2.326929307,67.51235176,2.92,'11111222,11111222,11111222' 
TABS,ioos:station:wmo:42045:1,2010-05-04T06:00:00Z,26.2168,-96.4998,4.0,1.888756204,56.22545582,2.35,'11111222,11111222,11111222' 
TABS,ioos:station:wmo:42045:1,2010-05-04T06:30:00Z,26.2168,-96.4998,4.0,1.745422585,28.76737161,2.11,'11111222,11111222,11111222' 
TABS,ioos:station:wmo:42045:1,2010-05-04T07:00:00Z,26.2168,-96.4998,4.0,0.959009906,348.5727147,1.16,'11111222,11111222,11111222' 
TABS,ioos:station:wmo:42045:1,2010-05-04T07:30:00Z,26.2168,-96.4998,4.0,2.088300745,309.5595755,2.92,'11111222,11111222,11111222' 
TABS,ioos:station:wmo:42045:1,2010-05-04T08:00:00Z,26.2168,-96.4998,4.0,3.531586046,312.5900772,4.22,'11111222,11111222,11111222' 
TABS,ioos:station:wmo:42045:1,2010-05-04T08:30:00Z,26.2168,-96.4998,4.0,3.529320048,316.2627205,4.21,'11111222,11111222,11111222' 
TABS,ioos:station:wmo:42045:1,2010-05-04T09:00:00Z,26.2168,-96.4998,4.0,3.677390379,315.8812967,4.38,'11111222,11111222,11111222' 
TABS,ioos:station:wmo:42045:1,2010-05-04T09:30:00Z,26.2168,-96.4998,4.0,4.441441208,316.0945828,4.8,'11111222,11111222,11111222' 
TABS,ioos:station:wmo:42045:1,2010-05-04T10:00:00Z,26.2168,-96.4998,4.0,5.603302598,316.8801372,6.17,'11111222,11111222,11111222' 
TABS,ioos:station:wmo:42045:1,2010-05-04T10:30:00Z,26.2168,-96.4998,4.0,5.167591315,320.0239583,6.15,'11111222,11111222,11111222' 
TABS,ioos:station:wmo:42045:1,2010-05-04T11:00:00Z,26.2168,-96.4998,4.0,4.373854136,326.5641235,4.91,'11111222,11111222,11111222' 
TABS,ioos:station:wmo:42045:1,2010-05-04T11:30:00Z,26.2168,-96.4998,4.0,4.400954442,329.7059383,5.41,'11111222,11111222,11111222' 
TABS,ioos:station:wmo:42045:1,2010-05-04T12:00:00Z,26.2168,-96.4998,4.0,3.928002037,323.0716323,4.82,'11111222,11111222,11111222' 
TABS,ioos:station:wmo:42045:1,2010-05-04T12:30:00Z,26.2168,-96.4998,4.0,4.251458573,329.1516673,5.21,'11111222,11111222,11111222' 
TABS,ioos:station:wmo:42045:1,2010-05-04T13:00:00Z,26.2168,-96.4998,4.0,4.528001767,323.0793636,5.37,'11111222,11111222,11111222' 
TABS,ioos:station:wmo:42045:1,2010-05-04T13:30:00Z,26.2168,-96.4998,4.0,4.332597373,329.9433241,5.43,'11111222,11111222,11111222' 
TABS,ioos:station:wmo:42045:1,2010-05-04T14:00:00Z,26.2168,-96.4998,4.0,4.01897997,345.444924,4.91,'11111222,11111222,11111222' 
TABS,ioos:station:wmo:42045:1,2010-05-04T14:30:00Z,26.2168,-96.4998,4.0,2.702239812,2.332766388,3.21,'11111222,11111222,11111222' 
TABS,ioos:station:wmo:42045:1,2010-05-04T15:00:00Z,26.2168,-96.4998,4.0,2.56750852,38.83376368,3.11,'11111222,11111222,11111222' 
TABS,ioos:station:wmo:42045:1,2010-05-04T15:30:00Z,26.2168,-96.4998,4.0,2.110213259,41.92635899,2.98,'11111222,11111222,11111222' 
TABS,ioos:station:wmo:42045:1,2010-05-04T16:00:00Z,26.2168,-96.4998,4.0,2.063128692,59.08352225,2.38,'11111222,11111222,11111222' 
TABS,ioos:station:wmo:42045:1,2010-05-04T16:30:00Z,26.2168,-96.4998,4.0,1.684339633,68.76673644,2.09,'11111222,11111222,11111222' 
TABS,ioos:station:wmo:42045:1,2010-05-04T17:00:00Z,26.2168,-96.4998,4.0,0.950841732,92.41144503,1.58,'11111222,11111222,11111222' 
TABS,ioos:station:wmo:42045:1,2010-05-04T17:30:00Z,26.2168,-96.4998,4.0,1.198540779,125.1490114,1.62,'11111222,11111222,11111222' 
TABS,ioos:station:wmo:42045:1,2010-05-04T18:00:00Z,26.2168,-96.4998,4.0,1.387551801,170.8773356,2.16,'11111222,11111222,11111222' 
TABS,ioos:station:wmo:42045:1,2010-05-04T18:30:00Z,26.2168,-96.4998,4.0,1.650030303,179.6529684,2.26,'11111222,11111222,11111222' 